Tracking 28790 objects as of 19-Apr-2024
HD Live streaming from Space Station
objects crossing your sky now

FENGYUN 1C DEB

Track FENGYUN 1C DEB now!
10-day predictions


NORAD ID: 37456
Int'l Code: 1999-025EJA
Perigee: 491.6 km
Apogee: 556.4 km
Inclination: 98.9 °
Period: 95.0 minutes
Semi major axis: 6894 km
RCS: 0.0113 m2 (small)
Launch date: May 10, 1999
Source: People's Republic of China (PRC)
Launch site: Taiyaun Space Center, China (TSC)

Note: This is SATELLITE DEBRIS
Your satellite tracking list
Your tracking list is empty




NASA's NSSDC Master Catalog

Two Line Element Set (TLE):
1 37456U 99025EJA 24106.85631758  .00124696  00000-0  61550-2 0  9993
2 37456  98.9219 318.2097 0046962 136.3153 224.1808 15.16362804789526
Source of the keplerian elements: AFSPC